This is the latest recevied weather packets stored in our database for station/object DL2GFH-3. If no packets are shown the sender has not sent any weather packets the latest 10 day(s).
| Time | Temp. | Humidity | Pressure | Rain* | Wind** | Luminosity | Snow |
|---|---|---|---|---|---|---|---|
| 1777653543 | 22.22° C | 22% | 1022.5 hPa | - | - | - | - |
| 1777652637 | 22.78° C | 22% | 1022.5 hPa | - | - | - | - |
| 1777651732 | 22.78° C | 21% | 1022.6 hPa | - | - | - | - |
| 1777650826 | 21.11° C | 23% | 1022.7 hPa | - | - | - | - |
| 1777649921 | 21.11° C | 23% | 1022.7 hPa | - | - | - | - |
| 1777649016 | 21.11° C | 23% | 1022.8 hPa | - | - | - | - |
| 1777646299 | 21.67° C | 22% | 1023.1 hPa | - | - | - | - |
| 1777645394 | 21.67° C | 22% | 1023.1 hPa | - | - | - | - |
| 1777644489 | 21.67° C | 22% | 1023.3 hPa | - | - | - | - |
| 1777643583 | 22.22° C | 22% | 1023.3 hPa | - | - | - | - |
| 1777642678 | 22.22° C | 21% | 1023.4 hPa | - | - | - | - |
| 1777641772 | 22.78° C | 21% | 1023.5 hPa | - | - | - | - |
| 1777640867 | 22.78° C | 20% | 1023.6 hPa | - | - | - | - |
| 1777639962 | 23.33° C | 20% | 1023.8 hPa | - | - | - | - |
| 1777639056 | 23.89° C | 19% | 1024 hPa | - | - | - | - |
| 1777638151 | 23.89° C | 19% | 1024 hPa | - | - | - | - |
| 1777637245 | 24.44° C | 19% | 1024 hPa | - | - | - | - |
| 1777636340 | 25° C | 18% | 1024 hPa | - | - | - | - |
| 1777635434 | 25° C | 18% | 1024.2 hPa | - | - | - | - |
| 1777634529 | 25.56° C | 17% | 1024.2 hPa | - | - | - | - |
| 1777633624 | 25.56° C | 17% | 1024.3 hPa | - | - | - | - |
| 1777632718 | 26.11° C | 17% | 1024.4 hPa | - | - | - | - |
| 1777631813 | 26.11° C | 16% | 1024.4 hPa | - | - | - | - |
| 1777630907 | 26.67° C | 16% | 1024.4 hPa | - | - | - | - |
| 1777630002 | 26.67° C | 15% | 1024.3 hPa | - | - | - | - |
* Rain since midnight (hover to see other rain measurements)
** Current wind speed in m/s (hover to see current wind gust speed)